Regional Weather Roundup
Issued by NWS

Home | Current Version | Previous Version | Text Only | Print | Product List | Glossary On
Versions: 1 2 3 4 5 6 7 8 9 10 11 12 13 14 15 16 17 18 19 20 21 22 23 24 25 26 27 28 29 30 31 32 33 34 35 36 37 38 39 40 41 42 43 44 45 46 47 48 49 50
000
ASUS43 KLSX 280810
RWRMO

WEATHER SUMMARY FOR MISSOURI
NATIONAL WEATHER SERVICE SPRINGFIELD MO
300 AM CDT FRI AUG 28 2015

NOTE: "FAIR" INDICATES FEW OR NO CLOUDS BELOW 12,000 FEET WITH NO
       SIGNIFICANT WEATHER AND/OR OBSTRUCTIONS TO VISIBILITY.
       CURRENT SKY AND/OR WEATHER CONDITIONS ARE NOT AVAILABLE FOR
       CHILLICOTHE AND FARMINGTON.

MOZ001>031-035>038-043-044-053-054-280900-
...NORTHERN AND WESTERN MISSOURI...

CITY           SKY/WX    TMP DP  RH WIND       PRES   REMARKS
KANSAS CTY INT CLOUDY    70  64  81 S12       29.97S
KANSAS C DTWN  CLOUDY    72  66  81 S7        29.97F
LEE`S SUMMIT   CLOUDY    68  64  87 SE10      29.99F
ST JOSEPH      CLOUDY    69  66  90 S7        29.97R
CHILLICOTHE      N/A     66  62  87 SE6       30.03S
KIRKSVILLE     MOCLDY    60  57  89 SE7       30.07F

$$
MOZ066>068-077>081-088>096-101>105-280900-
...SOUTHWEST MISSOURI...

CITY           SKY/WX    TMP DP  RH WIND       PRES   REMARKS
SPRINGFIELD    PTCLDY    65  59  81 S8        30.05S
JOPLIN         PTCLDY    67  63  87 S8        30.01S

$$
MOZ032>034-039>042-045>050-055>058-069>072-280900-
...CENTRAL MISSOURI...

CITY           SKY/WX    TMP DP  RH WIND       PRES   REMARKS
COLUMBIA       PTCLDY    62  60  93 SE6       30.07S
JEFFERSON CITY PTCLDY    64  60  87 E6        30.06S
ROLLA          PTCLDY    61  57  87 SE7       30.07R
SEDALIA        CLOUDY    65  60  84 SE6       30.04S
WHITEMAN AFB   CLEAR     66  62  86 S8        30.01F
WARRENSBURG    CLOUDY    64  63  94 SE5       30.01F
OSAGE BEACH    MOCLDY    63  57  82 SE3       30.06S

$$
MOZ051-052-059>065-280900-
...EAST CENTRAL MISSOURI...

CITY           SKY/WX    TMP DP  RH WIND       PRES   REMARKS
ST LOUIS INTL  PTCLDY    64  58  80 SE5       30.10S
SPIRIT OF STL  CLEAR     59  58  96 CALM      30.09R
ST CHARLES     CLEAR     63  60  90 CALM      30.09S

$$
MOZ072>076-082>087-097>100-106>115-280900-
...SOUTH CENTRAL AND SOUTHEAST MISSOURI...

CITY           SKY/WX    TMP DP  RH WIND       PRES   REMARKS
CAPE GIRARDEAU CLEAR     56  56 100 CALM      30.08S FOG
FARMINGTON     CLEAR     57  55  94 CALM      30.12R
POPLAR BLUFF   CLEAR     58  57  97 N3        30.07S
WEST PLAINS    CLEAR     62  56  80 CALM      30.09F

$$



USA.gov is the U.S. government's official web portal to all federal, state and local government web resources and services.